Location: Seattle
(47.6064°N, 122.3308°W)
Time: 06:39:31
(UTC-08:00)

Envisat - Pass Details

Date: 04 November 2020
Orbit: 764 x 766 km, 98.1° (Epoch: 30 November)

Event Time Altitude Azimuth Distance (km) Brightness Sun altitude
Rises 18:40:33 0° 215° (SW) 3,222 6.8 -19.6°
Reaches altitude 10° 18:43:55 10° 239° (WSW) 2,302 6.3 -20.1°
Maximum altitude 18:46:42 15° 273° (W) 1,998 6.2 -20.6°
Drops below altitude 10° 18:49:30 10° 306° (NW) 2,311 6.2 -21.1°
Sets 18:52:54 0° 330° (NNW) 3,244 6.7 -21.6°
